Simultaneous Nadir Overpasses (SNOs) Predictions

Prediction of SNOs between GOES-17 and AQUA Satellite Orbit:

Table of predicted SNOs for the next 14.0 days since TLE Epoch: 10/28/2023
Index Date Time (GOES-17) GOES-17 Lat,Lon AQUA Lat,Lon Distance(km) Time Diff (sec)
1 10/28/2023 20:39:42 0.00,-104.66 0.85,-100.74 446.96 80
2 10/29/2023 09:00:16 0.00,-104.69 0.21,-105.72 116.13 80
3 10/31/2023 08:42:44 0.00,-104.69 -0.56,-102.09 296.73 80
4 10/31/2023 21:03:27 -0.00,-104.66 -0.50,-107.10 276.97 80
5 11/02/2023 20:51:14 -0.00,-104.66 0.26,-103.47 136.33 80
6 11/03/2023 09:11:47 0.00,-104.70 0.83,-108.44 426.12 80
7 11/05/2023 08:56:54 -0.00,-104.70 0.02,-104.81 12.28 80
8 11/07/2023 08:39:20 0.00,-104.71 -0.78,-101.17 402.25 80
9 11/07/2023 21:00:02 -0.00,-104.68 -0.30,-106.19 171.26 80
10 11/09/2023 20:47:46 -0.00,-104.68 0.43,-102.53 244.07 80
11 11/10/2023 09:08:18 0.00,-104.72 0.62,-107.51 317.61 80
